Regional Weather Roundup
Issued by NWS Charleston, WV

Home | Current Version | Previous Version | Graphics & Text | Print | Product List | Glossary On
Versions: 1 2 3 4 5 6 7 8 9 10 11 12 13 14 15 16 17 18 19 20 21 22 23 24 25 26 27 28 29 30 31 32 33 34 35 36 37 38 39 40 41 42 43 44 45 46 47 48 49 50
057
ASUS41 KRLX 261710
RWRRLX
West Virginia Regional Weather Roundup
National Weather Service Charleston WV
100 PM EDT FRI MAY 26 2017

Note: "fair" indicates few or no clouds below 12,000 feet with no
significant weather and/or obstructions to visibility.

WVZ003-261800-
Northern Panhandle of West Virginia

CITY           SKY/WX    TMP DP  RH WIND       PRES   REMARKS
WHEELING       CLOUDY    61  52  72 W13G22    29.87R
$$

WVZ009-261800-
Northwest West Virginia

CITY           SKY/WX    TMP DP  RH WIND       PRES   REMARKS
PARKERSBURG    PTSUNNY   71  54  54 W13G23    29.92S
$$

WVZ006-261800-
Western West Virginia

CITY           SKY/WX    TMP DP  RH WIND       PRES   REMARKS
HUNTINGTON     MOSUNNY   74  56  53 W13G20    29.94S
$$

WVZ015-261800-
West Central West Virginia

CITY           SKY/WX    TMP DP  RH WIND       PRES   REMARKS
CHARLESTON     PTSUNNY   72  56  57 W15G23    29.94S
$$

WVZ022-031-261800-
North Central West Virginia

CITY           SKY/WX    TMP DP  RH WIND       PRES   REMARKS
CLARKSBURG     CLOUDY    66  53  63 W14       29.89R
MORGANTOWN     CLOUDY    64  51  62 W10G18    29.88S
$$

WVZ025-035-042-045-261800-
Southern West Virginia

CITY           SKY/WX    TMP DP  RH WIND       PRES   REMARKS
BECKLEY        MOSUNNY   66  51  58 W14G23    29.98S
LOGAN          PTSUNNY   68  54  60 VRB3G14   29.97S
BLUEFIELD      MOSUNNY   63  48  58 W8G26     30.01S
LEWISBURG      PTSUNNY   64  48  56 NW9G22    29.96S
$$

WVZ047-261800-
Northern Mountains of West Virginia

CITY           SKY/WX    TMP DP  RH WIND       PRES   REMARKS
ELKINS         CLOUDY    63  50  62 W13G20    29.92R
$$

WVZ052-261800-
Eastern Panhandle of West Virginia

CITY           SKY/WX    TMP DP  RH WIND       PRES   REMARKS
MARTINSBURG    CLOUDY    66  54  65 W9G23     29.79R
PETERSBURG     PTSUNNY   70  55  58 NW9G20    29.85S
$$




USA.gov is the U.S. government's official web portal to all federal, state and local government web resources and services.